Tracking 30260 objects as of 14-Feb-2025
HD Live streaming from Space Station
objects crossing your sky now

METEOR 2-20 DEB

Track METEOR 2-20 DEB now!
10-day predictions


NORAD ID: 44698
Int'l Code: 1990-086C
Perigee: 886.7 km
Apogee: 922.6 km
Inclination: 82.5 °
Period: 102.9 minutes
Semi major axis: 7275 km
RCS: Unknown
Launch date: September 28, 1990
Source: Commonwealth of Independent States (former USSR) (CIS)
Launch site: PLESETSK MISSILE AND SPACE COMPLEX (PKMTR)

Note: This is SATELLITE DEBRIS
Your satellite tracking list
Your tracking list is empty




NASA's NSSDC Master Catalog

Two Line Element Set (TLE):
1 44698U 90086C   25040.14781284  .00005804  00000-0  40019-2 0  9993
2 44698  82.5135 197.8066 0024673 146.8170 213.4552 13.98926271549203
Source of the keplerian elements: AFSPC